Location: Corte Bragagnani
(45.3000°N, 11.1000°E)
Time: 22:05:18
(UTC+00:00)

Cosmos 2181 Rocket - Pass Details

Date: 09 April 2020
Orbit: 952 x 1014 km, 82.9° (Epoch: 02 June)

Event Time Altitude Azimuth Distance (km) Brightness Sun altitude
Exits shadow 19:28:06 - 172° (S) 3,055 6.2 -16.2°
Reaches altitude 10° 19:28:59 10° 170° (S) 2,726 6.0 -16.3°
Maximum altitude 19:35:06 59° 93° (E) 1,109 4.0 -17.2°
Drops below altitude 10° 19:41:09 10° 15° (NNE) 2,706 6.5 -18.1°
Sets 19:43:40 0° 12° (NNE) 3,650 7.3 -18.5°
